www.pogodaiklimat.ru

Погода и климат >> Архив погоды >> Греция >> Самос


ПОГОДА на Самосе

  • Прогноз погоды на Самосе
  • Монитор погоды на Самосе

АРХИВ ПОГОДЫ на Самосе

Время (UTC), дата Ветер
(напр.,м/с)
 
Видим.   Явления Облачность Т
(С)
Тd
(С)
f
(%)
Тe
(С)
Тes
(С)
Комфортность P
(гПа)
Po
(гПа)
Тmin
(С)
Tmax
(С)
R
(мм)
R24
(мм)
S
(см)
03 16.02 СВ 6
{7}
10 км 5/5 600 м
[Sc]
+8.6 +5.5 81 +5 +5 1016.9 1015.5
06 16.02 С 6
{8}
10 км 5/5 600 м
[Sc]
+8.2 +4.6 78 +4 +4 1018.2 1016.9 +8.2 220
09 16.02 СВ 8
{11}
10 км 3/3 600 м
[Cu med, cong]
+11.0 +5.9 71 +8 +9 1019.3 1017.9
12 16.02 С 8
{14}
10 км 3/3 600 м
[Cu med, cong]
+12.8 +7.0 68 +10 +11 1018.9 1017.5
15 16.02 С 4
{9}
10 км 3/3 600 м
[Cu med, cong]
+11.4 +3.8 60 +9 +9 1019.9 1018.6
18 16.02 С 6
{10}
10 км 3/3 600 м
[Cu med, cong]
+8.8 +2.7 66 +5 +5 1020.9 1019.5 +13.0
03 17.02 штиль 0
{3}
10 км ясно +8.0 +3.3 72 +7 +7 1022.0 1020.6
06 17.02 СВ 3
{4}
10 км 6/3 600 м
[Cu med, cong Ac und]
+8.8 +4.3 73 +7 +7 1022.0 1020.6 +8.0 220
09 17.02 СВ 2
{5}
10 км 3/3 600 м
[Cu med, cong]
+11.2 +3.5 59 +10 +16 1022.9 1021.5
12 17.02 С 6
{10}
10 км 3/3 600 м
[Cu med, cong]
+13.4 +4.3 54 +11 +13 1021.1 1019.8
15 17.02 С 5
{9}
10 км 3/3 600 м
[Cu med, cong]
+14.2 +5.9 57 +13 +13 1020.6 1019.3
18 17.02 штиль 0
{7}
10 км 3/3 600 м
[Cu med, cong]
+11.2 +5.1 66 +11 +11 1021.5 1020.2 +14.2
03 18.02 С 2
{4}
10 км ясно +9.4 +6.4 82 +8 +8 1021.3 1019.9
06 18.02 С 2
{4}
10 км ясно +10.2 +6.4 77 +9 +10 1022.2 1020.9 +9.4 240
09 18.02 СВ 5
{8}
10 км ясно +13.2 +5.6 60 +11 +16 1022.6 1021.3
12 18.02 С 5
{7}
10 км ясно +17.0 +6.5 50 +16 +20 1020.7 1019.4
15 18.02 СВ 4
{5}
10 км ясно +14.6 +7.8 64 +14 +14 1020.0 1018.7
18 18.02 штиль 0
{4}
10 км ясно +12.4 +8.4 77 +12 +12 1020.7 1019.4 +17.0
03 19.02 штиль 0
{3}
10 км ясно +6.4 +3.0 79 +6 +6 1021.1 1019.6
06 19.02 штиль 0
{3}
10 км ясно +6.0 +2.1 76 +5 +7 1021.5 1020.0 +6.0 230
09 19.02 ЮВ 3
{4}
10 км ясно +10.0 +2.0 58 +8 +16 1021.9 1020.6
12 19.02 Ю 3
{6}
10 км 1/1 600 м
[Cu med, cong]
+16.0 +8.2 60 +16 +22 1021.3 1019.9
15 19.02 В 2
{5}
10 км 1/1 600 м
[Cu med, cong]
+15.6 +8.1 61 +16 +16 1020.5 1019.1
18 19.02 штиль 0
{4}
10 км ясно +12.0 +8.8 81 +11 +11 1020.5 1019.1 +16.4
03 20.02 штиль 0
{3}
10 км 1/1 600 м
[Cu med, cong]
+7.8 +6.0 88 +7 +7 1019.8 1018.5
06 20.02 штиль 0
{3}
10 км 1/1 600 м
[Cu med, cong]
+9.2 +7.1 87 +8 +10 1020.0 1018.7 +7.8 230
09 20.02 ЮВ 3
{4}
10 км 1/1 600 м
[Cu med, cong]
+14.6 +10.4 76 +14 +21 1021.0 1019.6
12 20.02 Ю 3
{6}
10 км 4/4 600 м
[Cu med, cong]
+17.0 +11.1 68 +17 +21 1021.8 1020.5
15 20.02 В 2
{5}
10 км 4/4 600 м
[Cu med, cong]
+16.8 +11.3 70 +17 +17 1019.4 1018.0
18 20.02 штиль 0
{3}
10 км ясно +13.0 +11.1 88 +12 +12 1020.7 1019.4 +17.6
03 21.02 штиль 0
{3}
10 км ясно +8.2 +6.5 89 +7 +7 1020.0 1018.7
06 21.02 штиль 0
{3}
10 км 3/3 600 м
[Cu med, cong]
+10.0 +7.9 87 +9 +11 1021.4 1020.0 +8.0 230
09 21.02 СВ 4
{5}
10 км 4/4 600 м
[Cu med, cong]
+15.0 +9.2 68 +14 +17 1021.8 1020.5
12 21.02 С 5
{6}
10 км 3/3 600 м
[Cu med, cong]
+16.6 +8.9 60 +16 +18 1020.2 1018.9
15 21.02 С 4
{6}
10 км ясно +15.0 +8.3 64 +14 +14 1020.6 1019.3
18 21.02 штиль 0
{3}
10 км ясно +12.6 +8.2 75 +12 +12 1020.7 1019.4 +16.6
03 22.02 штиль 0
{3}
10 км ясно +10.6 +7.3 80 +10 +10 1019.3 1017.9
06 22.02 штиль 0
{3}
10 км ясно +9.8 +5.9 77 +9 +11 1018.9 1017.5 +9.8 220
09 22.02 С 5
{5}
10 км ясно +13.6 +7.1 65 +12 +17 1018.7 1017.4
12 22.02 СВ 4
{6}
10 км 6/3 750 м
[Cu med, cong Ac und]
+16.4 +8.7 60 +16 +19 1015.9 1014.6
15 22.02 Ю 4
{5}
10 км 6/3 750 м
[Cu med, cong Ac und]
+16.0 +8.2 60 +15 +16 1014.9 1013.5 250

 

Местоположение метеостанции Самос (Греция): широта 37.70 долгота 26.92 высота над уровнем моря 7 м.

В архиве по умолчанию представлена погода на Самосе за последнюю неделю. Архивные данные за месяц целиком и за предыдущие месяцы, начиная с января 2011 года, Вы можете получить, выбрав интересующий диапазон дат из раскрывающегося списка и нажав кнопку "Ввод!".


*Определитесь, кто Вы:
робот инопланетянин человек

Внимание! Время в таблицах - всемирное. Для получения местного времени необходимо прибавить поправку, которая равна 2 ч.

Смотрите также архив погоды в соседних городах и на ближайших метеорологических станциях:

Погода в Кушадасы (Турция) (35 км)
Погода в Измир аэропорту (Турция) (67 км)
Погода в Айдыне (Турция) (83 км)
Погода в Измире (Турция) (84 км)
Погода в Аэропорту Милас-Бодрум (Турция) (84 км)
Погода в Чешме (Турция) (86 км)
Погода в Бодруме (Турция) (87 км)
Погода в Измир / Сигли (Турция) (89 км)
Погода на Хиосе (Греция) (99 км)
Погода на Косе (Греция) (103 км)

Пояснения к столбцам:

Ветер - указаны скорость ветра в м/с - средняя за 10 мин, порывы в срок и между сроками (в фигурных скобках) и направление, откуда дует ветер: С - северный, СВ - северо-восточный, В - восточный, ЮВ - юго-восточный, Ю - южный, ЮЗ - юго-западный, З - западный, СЗ - северо-западный.
Видимость - горизонтальная дальность видимости в метрах или километрах. При видимости от 1 до 10 км при отсутствии осадков обычно наблюдается дымка, при ухудшении видимости до 1 км и менее - туман. В сухую погоду видимость может ухудшаться дымом, пылью или мглою.
Явления - указаны атмосферные явления, наблюдавшиеся в срок или в последний час перед сроком; фигурными скобками обозначены явления, наблюдавшиеся между сроками (за 1-3 часа до срока); квадратными скобками обозначены град или гололедные отложения с указанием их диаметра в мм.
Облачность - указаны через наклонную черту общая и нижняя облачность в баллах и высота нижней границы облаков в метрах; квадратными скобками обозначены формы облаков: Ci - перистые, Cs - перисто-слоистые, Cc - перисто-кучевые, Ac - высококучевые, As - высокослоистые, Sc - слоисто-кучевые, Ns - слоисто-дождевые, Cu - кучевые, Cb - кучево-дождевые. Подробнее классификацию облаков см. в Атласе облаков (PDF).
T - Температура воздуха - температура, измеренная на высоте 2 м над землей.
Td - Температура точки росы - температура, при понижении до которой содержащийся в воздухе водяной пар достигнет насыщения.
f - Относительная влажность воздуха - влажноcть воздуха, измеренная на высоте 2 м над землей.
Te - Эффективная температура - температура, которую ощущает одетый по сезону человек в тени. Характеристика душности погоды. При расчете учитывается влияние влажности воздуха и скорости ветра на теплоощущения человека.
Tes - Эффективная температура на солнце - температура, которую ощущает человек, с поправкой на солнечный нагрев. Характеристика знойности погоды. Зависит от высоты солнца над горизонтом, облачности и скорости ветра. Ночью, в пасмурную погоду, а также при ветре 12 м/с и более поправка равна нулю.
P - Атмосферное давление - приведенное к уровню моря атмосферное давление.
Po - Атмосферное давление - измеренное на уровне метеостанции атмосферное давление.
Tmin - Минимальная температура - минимум температуры воздуха на высоте 2 м над землей.
Tmax - Максимальная температура - максимум температуры воздуха на высоте 2 м над землей.
R - Количество осадков - Количество выпавших осадков за период времени, мм. При наведении курсора мыши на число - период времени, за который выпало указанное количество осадков.
R24 - Количество осадков - Количество выпавших осадков за 24 часа, мм.
S - Снежный покров - Высота снежного покрова, см. При наведении курсора мыши на число - состояние снежного покрова и степень покрытия местности в баллах.